Starlink 32601

operational
NORAD ID: 61973 Int'l Des: 2024-210 Owner: SPXS Country: US Constellation: starlink
LEOCIRCULAR

关于 Starlink 32601

正在加载描述...

实时位置

正在加载3D地球...

即将过境

高度历史

Altitude vs Time

uPlot chart will show altitude changes over time

两行轨道根数

1 61973U 24210Q 25258.25530341 .00065836 00000-0 23783-2 0 9993
2 61973 43.0022 90.2318 0001307 278.7860 81.2844 15.27612865 48058
Epoch: Sep 15, 2025 • Age: 13 hours

当前状态

高度 484.7 km
速度 7.62 km/s
星下点 -11.93°S, 8.04°W
发射日期 Nov 14, 2024
运行时间 0.8 years
类型 internet

技术详情

分类 Payload
质量 730.00 kg
干质量 700.00 kg
总质量 730.00 kg
长度 0.30 m
直径 4.10 m
跨度 29.00 m
形状 Box + pan
制造商 SPXS
平台类型 Starlink V2M
阶段状态 In Orbit
所有者/国家 SPXS/US

大型星座

Loading constellations...